Weather History for China Lake, CA

Change the Weather History Date:

Tuesday, January 14, 2014

  Actual Average Record
Temperature  
Mean Temperature 50 °F -  
Max Temperature 70 °F 57 °F 73 °F (2000)
Min Temperature 30 °F 34 °F 15 °F (2013)
Degree Days  
Heating Degree Days 15    
Moisture  
Dew Point 10 °F    
Average Humidity 25    
Maximum Humidity 47    
Minimum Humidity 9    
Precipitation  
Precipitation 0.00 in - - ()
Sea Level Pressure  
Sea Level Pressure 30.45 in    
Wind  
Wind Speed 6 mph (SSE)    
Max Wind Speed 13 mph    
Max Gust Speed -    
Visibility 10 miles    
Events      
Averages and records for this station are not official NWS values.
T = Trace of Precipitation, MM = Missing Value Source: NWS Daily Summary

Daily Weather History Graph

Daily Weather History Graph

Search for Another Location

Airport:

Trip Planner

Search our weather history database for the weather conditions in past years. The results will help you decide how hot, cold, wet, or windy it might be!

Date:

Astronomy

Jan. 14, 2014 Rise Set
Actual Time 7:00 AM PST 4:59 PM PST
Civil Twilight 6:32 AM PST 5:27 PM PST
Nautical Twilight 6:00 AM PST 5:59 PM PST
Astronomical Twilight 5:30 AM PST 6:29 PM PST
Moon 4:08 PM PST (1/14) 5:39 AM PST (1/14)
Length of Visible Light 10h 55m
Length of Day
9h 59m
Waxing Gibbous, 98% of the Moon is Illuminated
Jan 14
Waxing Gibbous
Jan 15
Full
Jan 23
Last Quarter
Jan 30
New
Feb 6
First Quarter

Hourly Weather History & Observations

Time (PST) Temp. Windchill Dew Point Humidity Pressure Visibility Wind Dir Wind Speed Gust Speed Precip Events Conditions
12:56 AM 34.0 °F 28.0 °F 12.0 °F 40% 30.45 in 10.0 mi SSW 6.9 mph - N/A   Clear
1:56 AM 33.1 °F 28.7 °F 12.0 °F 42% 30.46 in 10.0 mi ENE 4.6 mph - N/A   Clear
2:56 AM 32.0 °F 26.4 °F 12.9 °F 45% 30.46 in 10.0 mi SSW 5.8 mph - N/A   Clear
3:56 AM 37.0 °F 33.3 °F 14.0 °F 39% 30.45 in 10.0 mi South 4.6 mph - N/A   Clear
4:56 AM 30.0 °F - 12.0 °F 47% 30.46 in 10.0 mi Calm Calm - N/A   Clear
5:56 AM 32.0 °F 25.6 °F 12.9 °F 45% 30.47 in 10.0 mi South 6.9 mph - N/A   Clear
6:56 AM 33.1 °F 25.5 °F 10.0 °F 38% 30.50 in 10.0 mi SSE 9.2 mph - N/A   Clear
7:56 AM 37.0 °F 34.5 °F 12.9 °F 37% 30.52 in 10.0 mi Variable 3.5 mph - N/A   Clear
8:56 AM 48.9 °F - 14.0 °F 25% 30.54 in 10.0 mi Calm Calm - N/A   Clear
9:56 AM 55.0 °F - 14.0 °F 20% 30.53 in 10.0 mi NNE 3.5 mph - N/A   Clear
10:56 AM 59.0 °F - 15.1 °F 18% 30.51 in 10.0 mi ENE 4.6 mph - N/A   Clear
11:56 AM 64.9 °F - 9.0 °F 11% 30.46 in 10.0 mi Variable 3.5 mph - N/A   Clear
12:56 PM 69.1 °F - 8.1 °F 9% 30.42 in 10.0 mi ESE 6.9 mph - N/A   Clear
1:56 PM 70.0 °F - 9.0 °F 9% 30.39 in 10.0 mi SE 9.2 mph - N/A   Clear
2:56 PM 70.0 °F - 9.0 °F 9% 30.39 in 10.0 mi ESE 12.7 mph - N/A   Clear
3:56 PM 69.1 °F - 9.0 °F 10% 30.38 in 10.0 mi ESE 8.1 mph - N/A   Clear
4:56 PM 63.0 °F - 9.0 °F 12% 30.39 in 10.0 mi ESE 4.6 mph - N/A   Clear
5:56 PM 54.0 °F - 8.1 °F 16% 30.40 in 10.0 mi SSE 4.6 mph - N/A   Clear
6:56 PM 53.1 °F - 8.1 °F 16% 30.42 in 10.0 mi SSW 8.1 mph - N/A   Clear
7:56 PM 48.0 °F - 7.0 °F 19% 30.43 in 10.0 mi SSW 9.2 mph - N/A   Clear
8:56 PM 46.0 °F 43.9 °F 7.0 °F 20% 30.43 in 10.0 mi Variable 4.6 mph - N/A   Clear
9:56 PM 46.0 °F 41.0 °F 7.0 °F 20% 30.42 in 10.0 mi SSW 10.4 mph - N/A   Clear
10:56 PM 44.1 °F 40.8 °F 7.0 °F 22% 30.43 in 10.0 mi Variable 5.8 mph - N/A   Clear
11:56 PM 39.9 °F 36.7 °F 7.0 °F 26% 30.43 in 10.0 mi Variable 4.6 mph - N/A   Clear